TimeCST,TemperatureF,Dew PointF,Humidity,Sea Level PressureIn,VisibilityMPH,Wind Direction,Wind SpeedMPH,Gust SpeedMPH,PrecipitationIn,Events,Conditions,WindDirDegrees,DateUTC
12:52 AM,30.9,25.0,79,30.21,10.0,SW,9.2,-,N/A,,Mostly Cloudy,220,2013-01-05 06:52:00
1:52 AM,35.1,27.0,72,30.19,10.0,SSW,9.2,-,N/A,,Overcast,210,2013-01-05 07:52:00
2:52 AM,37.0,28.0,70,30.19,10.0,SSW,8.1,-,N/A,,Overcast,210,2013-01-05 08:52:00
3:52 AM,37.0,28.9,73,30.17,10.0,SW,12.7,-,N/A,,Overcast,220,2013-01-05 09:52:00
4:52 AM,37.0,28.9,73,30.15,10.0,SSW,12.7,-,N/A,,Overcast,210,2013-01-05 10:52:00
5:52 AM,37.0,30.0,76,30.15,10.0,SSW,10.4,-,N/A,,Overcast,210,2013-01-05 11:52:00
6:52 AM,37.0,30.9,79,30.15,10.0,SSW,11.5,-,N/A,,Overcast,210,2013-01-05 12:52:00
7:52 AM,36.0,30.0,79,30.16,10.0,SSW,10.4,-,N/A,,Mostly Cloudy,210,2013-01-05 13:52:00
8:52 AM,37.0,30.0,76,30.16,10.0,SSW,12.7,-,N/A,,Mostly Cloudy,210,2013-01-05 14:52:00
9:52 AM,37.4,30.2,75,30.14,10.0,SW,12.7,-,N/A,,Overcast,220,2013-01-05 15:52:00
10:52 AM,39.9,30.9,70,30.16,10.0,SW,15.0,23.0,N/A,,Mostly Cloudy,220,2013-01-05 16:52:00
11:52 AM,42.8,30.2,61,30.11,10.0,SW,18.4,24.2,N/A,,Partly Cloudy,230,2013-01-05 17:52:00
12:52 PM,43.0,30.0,60,30.10,10.0,WSW,16.1,23.0,N/A,,Clear,240,2013-01-05 18:52:00
1:52 PM,43.0,30.0,60,30.07,10.0,SW,17.3,23.0,N/A,,Clear,230,2013-01-05 19:52:00
2:52 PM,43.0,28.9,58,30.11,10.0,West,16.1,28.8,N/A,,Clear,260,2013-01-05 20:52:00
3:52 PM,39.9,27.0,60,30.13,10.0,WSW,11.5,-,N/A,,Clear,250,2013-01-05 21:52:00
4:52 PM,34.0,21.9,61,30.17,10.0,West,5.8,17.3,N/A,,Clear,260,2013-01-05 22:52:00
5:52 PM,30.9,21.0,67,30.19,10.0,WSW,6.9,-,N/A,,Clear,250,2013-01-05 23:52:00
6:52 PM,28.0,21.0,75,30.21,10.0,SW,6.9,-,N/A,,Clear,220,2013-01-06 00:52:00
7:52 PM,28.0,19.9,72,30.23,10.0,WSW,5.8,-,N/A,,Clear,240,2013-01-06 01:52:00
8:52 PM,25.0,19.0,78,30.24,10.0,Calm,Calm,-,N/A,,Clear,0,2013-01-06 02:52:00
9:52 PM,27.0,19.9,75,30.24,10.0,WSW,3.5,-,N/A,,Clear,250,2013-01-06 03:52:00
10:52 PM,30.2,23.0,75,30.23,10.0,WNW,4.6,-,N/A,,Clear,290,2013-01-06 04:52:00
11:52 PM,30.9,23.0,72,30.26,10.0,West,5.8,-,N/A,,Clear,280,2013-01-06 05:52:00